Location: Unspecified
(0.0000°N, 0.0000°E)
Time: 19:05:12
(UTC+00:00)

Vanguard 2 Rocket - Pass Details

Date: 21 November 2019
Orbit: 554 x 3326 km, 32.9° (Epoch: 05 December)

Event Time Altitude Azimuth Distance (km) Brightness Sun altitude
Rises 21:19:37 0° 254° (WSW) 4,440 11.1 -49.0°
Reaches altitude 10° 21:23:47 10° 266° (W) 2,983 9.9 -49.9°
Enters shadow 21:24:29 12° 270° (W) 2,753 9.7 -50.0°
Maximum altitude 21:29:06 24° 318° (NW) 1,645 - -51.0°
Drops below altitude 10° 21:32:56 10° 13° (NNE) 2,081 - -51.8°
Sets 21:35:18 0° 29° (NNE) 2,835 - -52.3°
